Location: Bathurst
(33.4193°S, 149.5775°E)
Time: 09:03:13
(UTC+10:00)

Vanguard 1 Rocket - Pass Details

Date: 18 June 2021
Orbit: 650 x 4226 km, 34.3° (Epoch: 02 August)

Event Time Altitude Azimuth Distance (km) Brightness Sun altitude
Rises 08:41:51 0° 305° (NW) 8,322 12.2 15.7°
Reaches altitude 10° 08:48:07 10° 307° (NW) 7,035 11.9 16.7°
Maximum altitude 09:09:23 66° 22° (NNE) 2,767 10.6 19.8°
Drops below altitude 10° 09:20:26 10° 101° (E) 3,943 11.1 21.3°
Sets 09:22:53 0° 104° (ESE) 4,608 11.3 21.6°
